Location: Les Thiberg�res
(47.8554°N, 1.0978°W)
Time: 05:12:07
(UTC+00:00)

STARLINK-1120 - Pass Details

Date: 17 February 2020
Orbit: 554 x 555 km, 53.0° (Epoch: 31 March)

Event Time Altitude Azimuth Distance (km) Brightness Sun altitude
Exits shadow 06:28:39 - 297° (WNW) 1,981 5.8 -7.3°
Reaches altitude 10° 06:29:00 10° 298° (WNW) 1,845 5.7 -7.2°
Maximum altitude 06:33:04 48° 13° (NNE) 736 4.3 -6.6°
Drops below altitude 10° 06:37:08 10° 89° (E) 1,842 7.9 -5.9°
Sets 06:39:26 0° 95° (E) 2,736 9.7 -5.5°
